Eielson AFB, AK

7:10 PM AKST on February 23, 2017 (GMT -0900)
Eielson Air Force Base

Weather History for PAEI - September, 2014

Change the Weather History Date:

Monday, September 1, 2014

  Actual Average Record
Temperature  
Mean Temperature 42 °F -  
Max Temperature 49 °F 59 °F 79 °F (1963)
Min Temperature 34 °F 39 °F 29 °F (1962)
Degree Days  
Heating Degree Days 24    
Moisture  
Dew Point 36 °F    
Average Humidity 79    
Maximum Humidity 94    
Minimum Humidity 53    
Precipitation  
Precipitation 0.54 in - - ()
Sea Level Pressure  
Sea Level Pressure 29.79 in    
Wind  
Wind Speed 7 mph (South)    
Max Wind Speed 13 mph    
Max Gust Speed -    
Visibility 9 miles    
Events Rain    
Averages and records for this station are not official NWS values.
T = Trace of Precipitation, MM = Missing Value Source: NWS Daily Summary

Daily Weather History Graph

Daily Weather History Graph

Search for Another Location

Airport or City:

Trip Planner

Search our weather history database for the weather conditions in past years. The results will help you decide how hot, cold, wet, or windy it might be!

Date:

Astronomy

Sep. 01, 2014 Rise Set
Actual Time 6:29 AM AKDT 9:05 PM AKDT
Civil Twilight 5:34 AM AKDT 9:59 PM AKDT
Nautical Twilight 4:17 AM AKDT 11:14 PM AKDT
Astronomical Twilight 2:20 AM AKDT 1:15 AM AKDT
Moon 4:01 PM AKDT (9/1) 10:36 PM AKDT (9/1)
Length of Visible Light 16h 24m
Length of Day
14h 35m
Waxing Crescent, 43% of the Moon is Illuminated
Sep 1
Waxing Crescent
Sep 2
First Quarter
Sep 8
Full
Sep 15
Last Quarter
Sep 23
New

Hourly Weather History & Observations

Time (AKDT) Temp. Windchill Dew Point Humidity Pressure Visibility Wind Dir Wind Speed Gust Speed Precip Events Conditions
12:58 AM 35.2 °F 30.3 °F 30.2 °F 82% 29.88 in 10.0 mi South 5.8 mph - N/A   Clear
1:58 AM 34.5 °F 28.6 °F 31.1 °F 87% 29.88 in 10.0 mi South 6.9 mph - N/A   Mostly Cloudy
2:58 AM 36.5 °F 32.7 °F 32.2 °F 84% 29.88 in 10.0 mi South 4.6 mph - N/A   Mostly Cloudy
3:58 AM 36.7 °F 32.9 °F 31.6 °F 82% 29.88 in 10.0 mi SSE 4.6 mph - N/A   Scattered Clouds
4:58 AM 36.1 °F 30.6 °F 32.0 °F 85% 29.88 in 10.0 mi SSE 6.9 mph - N/A   Mostly Cloudy
5:58 AM 36.9 °F 32.2 °F 32.2 °F 83% 29.88 in 10.0 mi SSE 5.8 mph - N/A   Scattered Clouds
6:58 AM 34.3 °F 28.4 °F 30.6 °F 86% 29.87 in 10.0 mi SSE 6.9 mph - N/A   Clear
7:58 AM 36.0 °F 30.3 °F 31.5 °F 84% 29.87 in 10.0 mi South 6.9 mph - N/A   Clear
8:58 AM 41.5 °F 37.1 °F 33.1 °F 72% 29.86 in 10.0 mi South 6.9 mph - N/A   Clear
9:58 AM 45.3 °F 41.6 °F 33.8 °F 64% 29.84 in 10.0 mi South 6.9 mph - N/A   Clear
10:58 AM 46.4 °F 42.4 °F 35.1 °F 65% 29.82 in 10.0 mi South 8.1 mph - N/A   Clear
11:58 AM 48.4 °F - 34.0 °F 58% 29.81 in 10.0 mi South 10.4 mph - N/A   Partly Cloudy
12:58 PM 49.3 °F - 32.7 °F 53% 29.79 in 10.0 mi South 11.5 mph - N/A   Clear
1:32 PM 48.2 °F - 32.0 °F 54% 29.76 in 10.0 mi West 10.4 mph - N/A Rain Light Rain
1:58 PM 47.5 °F - 35.4 °F 63% 29.78 in 10.0 mi Variable 4.6 mph - 0.00 in Rain Light Rain
2:58 PM 47.3 °F - 36.9 °F 67% 29.76 in 10.0 mi SSW 8.1 mph - 0.00 in Rain Light Rain
3:58 PM 47.3 °F - 40.6 °F 78% 29.75 in 9.0 mi SSW 6.9 mph - 0.00 in Rain Light Rain
4:58 PM 46.0 °F 41.9 °F 42.8 °F 88% 29.74 in 6.0 mi South 8.1 mph - 0.04 in Rain Light Rain
5:58 PM 45.7 °F 39.8 °F 43.7 °F 93% 29.71 in 5.0 mi SSE 12.7 mph - 0.08 in Rain Light Rain
6:58 PM 45.5 °F 40.3 °F 43.0 °F 91% 29.70 in 6.0 mi South 10.4 mph - 0.06 in Rain Light Rain
7:58 PM 45.5 °F 40.8 °F 43.3 °F 92% 29.68 in 7.0 mi South 9.2 mph - 0.05 in Rain Light Rain
8:58 PM 45.3 °F 40.1 °F 43.2 °F 92% 29.67 in 8.0 mi South 10.4 mph - 0.05 in Rain Light Rain
9:58 PM 45.3 °F 40.1 °F 43.2 °F 92% 29.67 in 6.0 mi South 10.4 mph - 0.10 in Rain Light Rain
10:58 PM 45.1 °F 40.8 °F 43.3 °F 93% 29.66 in 6.0 mi South 8.1 mph - 0.07 in Rain Light Rain
11:58 PM 45.0 °F 40.1 °F 43.3 °F 94% 29.65 in 7.0 mi South 9.2 mph - 0.09 in Rain Light Rain